Hlavní strana
METAR-TAF:

METAR-TAF

Letiště :

Torsby, Švédsko

zeměpisná šířka: 60-09-17N, zeměpisná délka: 12-59-40E, výška: 120 m

Aktuální stav počasí

Zpráva byla vytvořena před 31 minutami, v 03:20 UTC
Severoseverozápadní vítr 2 kt
Teplota -14°C
Vlhkost vzduchu 92%
Tlak 1014 hPa
Viditelnost: 1900 m
slabé sněžení

METAR: ESST 210320Z AUTO 33002KT 1900 -SN SCT006/// BKN008/// OVC020/// M14/M15 Q1014

Čas: 04:51 (03:51 UTC)


TAF: chybějící

Stav a předpovědi počasí z více než 4 000 letišť (zprávy METAR a TAF).

Červené a žluté tečky na mapě představují dostupné meteorologické stanice.

Když kurzor umístíte na tečku, zobrazí se název stanice.

Pak kliknutím zobrazíte stav a předpověď počasí.

Chcete-li změnit mapu, kliknutím na zelené tlačítko se znaménkem +mapu přiblížíte, kliknutím na zelené tlačítko se znaménkem – mapu oddálíte a kliknutím na zelené šipky přejdete na sousední mapy.


METAR-TAF: